Time,TemperatureF,DewpointF,PressureIn,WindDirection,WindDirectionDegrees,WindSpeedMPH,WindSpeedGustMPH,Humidity,HourlyPrecipIn,Conditions,Clouds,dailyrainin,SolarRadiationWatts/m^2,SoftwareType,DateUTC
2013-03-23 00:04:00,68.4,65.9,30.03,SE,135,0.0,0.0,92,0.00,SCT,BKN,0.00,0.0,WeatherDisplay:10.37,2013-03-23 10:04:00,
2013-03-23 00:09:00,68.4,65.9,30.03,SE,135,0.0,0.0,92,0.00,SCT,BKN,0.00,0.0,WeatherDisplay:10.37,2013-03-23 10:09:00,
2013-03-23 00:14:00,68.4,65.9,30.03,SE,135,0.0,0.0,92,0.00,SCT,BKN,0.00,0.0,WeatherDisplay:10.37,2013-03-23 10:14:00,
2013-03-23 00:19:00,68.4,65.9,30.03,SE,135,1.6,1.6,92,0.00,SCT,BKN,0.00,0.0,WeatherDisplay:10.37,2013-03-23 10:19:00,
2013-03-23 00:24:00,68.5,66.1,30.03,SE,135,0.0,0.0,92,0.00,SCT,BKN,0.00,0.0,WeatherDisplay:10.37,2013-03-23 10:24:00,
2013-03-23 00:29:00,68.5,66.1,30.03,SE,135,0.0,0.0,92,0.00,SCT,BKN,0.00,0.0,WeatherDisplay:10.37,2013-03-23 10:29:00,
2013-03-23 00:34:00,68.5,66.1,30.03,SE,135,0.0,0.0,92,0.00,SCT,BKN,0.00,0.0,WeatherDisplay:10.37,2013-03-23 10:34:00,
2013-03-23 00:39:00,68.5,66.1,30.03,SE,135,0.0,0.0,92,0.00,SCT,BKN,0.00,0.0,WeatherDisplay:10.37,2013-03-23 10:39:00,
2013-03-23 00:44:00,68.5,66.1,30.03,SE,135,0.9,1.2,92,0.00,SCT,BKN,0.00,0.0,WeatherDisplay:10.37,2013-03-23 10:44:00,
2013-03-23 00:49:00,68.5,66.1,30.00,SE,135,0.0,0.0,92,0.00,SCT,BKN,0.00,0.0,WeatherDisplay:10.37,2013-03-23 10:49:00,
2013-03-23 00:54:00,68.5,66.1,30.00,SE,135,0.0,0.0,92,0.00,SCT,BKN,0.00,0.0,WeatherDisplay:10.37,2013-03-23 10:54:00,
2013-03-23 00:59:00,68.5,66.1,30.00,SE,135,0.0,0.0,92,0.00,SCT,BKN,0.00,0.0,WeatherDisplay:10.37,2013-03-23 10:59:00,
2013-03-23 01:04:00,68.7,66.3,30.00,SE,135,0.9,1.2,92,0.00,SCT,BKN,0.00,0.0,WeatherDisplay:10.37,2013-03-23 11:04:00,
2013-03-23 01:09:00,68.7,66.3,30.00,SE,135,0.0,0.0,92,0.00,SCT,BKN,0.00,0.0,WeatherDisplay:10.37,2013-03-23 11:09:00,
2013-03-23 01:14:00,68.5,66.1,30.00,SE,135,0.0,0.0,92,0.00,SCT,BKN,0.00,0.0,WeatherDisplay:10.37,2013-03-23 11:14:00,
2013-03-23 01:19:00,68.5,66.1,30.00,SE,135,0.0,0.0,92,0.00,SCT,BKN,0.00,0.0,WeatherDisplay:10.37,2013-03-23 11:19:00,
2013-03-23 01:24:00,68.5,65.8,30.00,SE,135,0.0,0.0,91,0.00,SCT,BKN,0.00,0.0,WeatherDisplay:10.37,2013-03-23 11:24:00,
2013-03-23 01:29:00,68.5,66.1,30.00,SE,135,0.0,0.0,92,0.00,SCT,BKN,0.00,0.0,WeatherDisplay:10.37,2013-03-23 11:29:00,
2013-03-23 01:34:00,68.5,66.1,30.00,SE,135,0.0,1.2,92,0.00,SCT,BKN,0.00,0.0,WeatherDisplay:10.37,2013-03-23 11:34:00,
2013-03-23 01:39:00,68.5,65.8,30.00,SE,135,0.0,0.0,91,0.00,SCT,BKN,0.00,0.0,WeatherDisplay:10.37,2013-03-23 11:39:00,
2013-03-23 01:44:00,68.5,65.8,30.00,SE,135,0.0,0.0,91,0.00,SCT,BKN,0.00,0.0,WeatherDisplay:10.37,2013-03-23 11:44:00,
2013-03-23 01:49:00,68.4,65.6,29.97,SE,135,0.0,0.0,91,0.00,SCT,BKN,0.00,0.0,WeatherDisplay:10.37,2013-03-23 11:49:00,
2013-03-23 01:54:00,68.4,65.6,29.97,SE,135,0.0,0.0,91,0.00,SCT,BKN,0.00,0.0,WeatherDisplay:10.37,2013-03-23 11:54:00,
2013-03-23 01:59:00,68.4,65.6,29.97,SE,135,0.0,0.0,91,0.00,SCT,BKN,0.00,0.0,WeatherDisplay:10.37,2013-03-23 11:59:00,
2013-03-23 02:04:00,68.4,65.6,30.00,SE,135,0.0,0.0,91,0.00,SCT,BKN,0.00,0.0,WeatherDisplay:10.37,2013-03-23 12:04:00,
2013-03-23 02:09:00,68.2,65.5,30.00,SE,135,0.0,0.0,91,0.00,SCT,BKN,0.00,0.0,WeatherDisplay:10.37,2013-03-23 12:09:00,
2013-03-23 02:14:00,68.2,65.5,30.00,SE,135,0.0,0.0,91,0.00,SCT,BKN,0.00,0.0,WeatherDisplay:10.37,2013-03-23 12:14:00,
2013-03-23 02:19:00,68.2,65.5,29.97,SE,135,0.0,0.0,91,0.00,SCT,BKN,0.00,0.0,WeatherDisplay:10.37,2013-03-23 12:19:00,
2013-03-23 02:24:00,68.2,65.5,29.97,SE,135,0.0,0.0,91,0.00,SCT,BKN,0.00,0.0,WeatherDisplay:10.37,2013-03-23 12:24:00,
2013-03-23 02:29:00,68.4,65.6,29.97,SE,135,0.0,0.0,91,0.00,SCT,BKN,0.00,0.0,WeatherDisplay:10.37,2013-03-23 12:29:00,
2013-03-23 02:34:00,68.4,65.6,30.00,SE,135,0.0,0.0,91,0.00,SCT,BKN,0.00,0.0,WeatherDisplay:10.37,2013-03-23 12:34:00,
2013-03-23 02:39:00,68.4,65.6,30.00,SE,135,0.0,0.0,91,0.00,SCT,BKN,0.00,0.0,WeatherDisplay:10.37,2013-03-23 12:39:00,
2013-03-23 02:44:00,68.2,65.5,30.00,SE,135,0.0,0.0,91,0.00,SCT,BKN,0.00,0.0,WeatherDisplay:10.37,2013-03-23 12:44:00,
2013-03-23 02:49:00,68.2,65.5,30.00,SE,135,0.0,0.0,91,0.00,SCT,BKN,0.00,0.0,WeatherDisplay:10.37,2013-03-23 12:49:00,
2013-03-23 02:54:00,68.2,65.1,30.00,SE,135,0.0,0.0,90,0.00,SCT,BKN,0.00,0.0,WeatherDisplay:10.37,2013-03-23 12:54:00,
2013-03-23 02:59:00,68.2,65.1,30.00,SE,135,0.0,0.0,90,0.00,SCT,BKN,0.00,0.0,WeatherDisplay:10.37,2013-03-23 12:59:00,
2013-03-23 03:04:00,68.2,65.1,30.00,SE,135,0.0,0.0,90,0.00,SCT,BKN,0.00,0.0,WeatherDisplay:10.37,2013-03-23 13:04:00,
2013-03-23 03:09:00,68.0,65.3,30.00,SE,135,0.0,0.0,91,0.00,SCT,BKN,0.00,0.0,WeatherDisplay:10.37,2013-03-23 13:09:00,
2013-03-23 03:14:00,67.8,65.1,30.00,West,270,0.9,2.4,91,0.00,SCT,BKN,0.00,0.0,WeatherDisplay:10.37,2013-03-23 13:14:00,
2013-03-23 03:20:00,67.8,65.1,30.00,East,90,0.0,0.0,91,0.00,SCT,BKN,0.00,0.0,WeatherDisplay:10.37,2013-03-23 13:20:00,
2013-03-23 03:25:00,67.8,65.1,30.00,SSW,202,0.0,0.0,91,0.00,SCT,BKN,0.00,0.0,WeatherDisplay:10.37,2013-03-23 13:25:00,
2013-03-23 03:30:00,67.8,65.1,30.00,SSW,202,1.6,1.6,91,0.00,SCT,BKN,0.00,0.0,WeatherDisplay:10.37,2013-03-23 13:30:00,
2013-03-23 03:35:00,67.8,65.1,30.00,SW,225,0.0,1.2,91,0.00,SCT,BKN,0.00,0.0,WeatherDisplay:10.37,2013-03-23 13:35:00,
2013-03-23 03:40:00,67.8,65.1,30.00,SW,225,0.0,0.0,91,0.00,SCT,BKN,0.00,0.0,WeatherDisplay:10.37,2013-03-23 13:40:00,
2013-03-23 03:45:00,67.6,64.9,30.00,South,180,0.0,0.0,91,0.00,SCT,BKN,0.00,0.0,WeatherDisplay:10.37,2013-03-23 13:45:00,
2013-03-23 03:50:00,67.5,64.7,30.00,SSW,202,0.0,0.9,91,0.00,SCT,BKN,0.00,0.0,WeatherDisplay:10.37,2013-03-23 13:50:00,
2013-03-23 03:55:00,67.5,64.7,30.00,SSW,202,0.0,0.0,91,0.00,SCT,BKN,0.00,0.0,WeatherDisplay:10.37,2013-03-23 13:55:00,
2013-03-23 04:00:00,67.3,64.6,30.00,SSW,202,0.0,0.0,91,0.00,SCT,BKN,0.00,0.0,WeatherDisplay:10.37,2013-03-23 14:00:00,
2013-03-23 04:05:00,67.1,64.4,30.00,SSW,202,0.0,0.0,91,0.00,SCT,BKN,0.00,0.0,WeatherDisplay:10.37,2013-03-23 14:05:00,
2013-03-23 04:10:00,67.1,64.4,30.00,SSW,202,0.0,0.0,91,0.00,SCT,BKN,0.00,0.0,WeatherDisplay:10.37,2013-03-23 14:10:00,
2013-03-23 04:15:00,67.1,64.7,30.00,South,180,0.0,0.0,92,0.00,SCT,BKN,0.00,0.0,WeatherDisplay:10.37,2013-03-23 14:15:00,
2013-03-23 04:20:00,67.1,64.7,30.00,South,180,0.0,0.0,92,0.00,SCT,BKN,0.00,0.0,WeatherDisplay:10.37,2013-03-23 14:20:00,
2013-03-23 04:25:00,67.1,64.7,30.00,South,180,0.0,0.0,92,0.00,SCT,BKN,0.00,0.0,WeatherDisplay:10.37,2013-03-23 14:25:00,
2013-03-23 04:30:00,67.1,64.7,30.00,South,180,0.0,0.0,92,0.00,SCT,BKN,0.00,0.0,WeatherDisplay:10.37,2013-03-23 14:30:00,
2013-03-23 04:36:00,67.3,64.9,30.00,South,180,2.0,2.3,92,0.00,SCT,BKN,0.00,0.0,WeatherDisplay:10.37,2013-03-23 14:36:00,
2013-03-23 04:41:00,67.3,64.9,30.00,ESE,112,0.0,0.0,92,0.00,SCT,BKN,0.00,0.0,WeatherDisplay:10.37,2013-03-23 14:41:00,
2013-03-23 04:47:00,67.3,64.9,30.00,ESE,112,0.0,0.0,92,0.00,SCT,BKN,0.00,0.0,WeatherDisplay:10.37,2013-03-23 14:47:00,
2013-03-23 04:52:00,67.3,64.9,30.00,South,180,0.0,0.0,92,0.00,SCT,BKN,0.00,0.0,WeatherDisplay:10.37,2013-03-23 14:52:00,
2013-03-23 04:57:00,67.3,64.9,30.00,North,0,0.0,0.0,92,0.00,SCT,BKN,0.00,0.0,WeatherDisplay:10.37,2013-03-23 14:57:00,
2013-03-23 05:02:00,67.5,65.1,30.00,South,180,2.4,2.4,92,0.00,SCT,BKN,0.00,0.0,WeatherDisplay:10.37,2013-03-23 15:02:00,
2013-03-23 05:07:00,67.5,65.1,30.00,SE,135,0.0,2.3,92,0.00,SCT,BKN,0.00,0.0,WeatherDisplay:10.37,2013-03-23 15:07:00,
2013-03-23 05:12:00,67.6,65.2,30.00,East,90,0.0,1.2,92,0.00,SCT,BKN,0.00,0.0,WeatherDisplay:10.37,2013-03-23 15:12:00,
2013-03-23 05:17:00,67.6,64.9,30.00,NE,45,0.0,0.0,91,0.00,SCT,BKN,0.00,0.0,WeatherDisplay:10.37,2013-03-23 15:17:00,
2013-03-23 05:22:00,67.8,65.1,30.00,NE,45,2.0,3.5,91,0.00,SCT,BKN,0.00,0.0,WeatherDisplay:10.37,2013-03-23 15:22:00,
2013-03-23 05:27:00,68.0,64.6,30.00,NNE,22,2.0,4.6,89,0.00,SCT,BKN,0.00,0.0,WeatherDisplay:10.37,2013-03-23 15:27:00,
2013-03-23 05:32:00,68.2,64.5,30.00,South,180,1.6,2.3,88,0.00,SCT,BKN,0.00,0.0,WeatherDisplay:10.37,2013-03-23 15:32:00,
2013-03-23 05:37:00,68.0,64.3,30.00,East,90,0.0,2.0,88,0.00,SCT,BKN,0.00,0.0,WeatherDisplay:10.37,2013-03-23 15:37:00,
2013-03-23 05:42:00,68.0,64.3,30.00,South,180,2.0,2.3,88,0.00,SCT,BKN,0.00,0.0,WeatherDisplay:10.37,2013-03-23 15:42:00,
2013-03-23 05:47:00,68.0,64.3,29.97,SW,225,2.6,3.5,88,0.00,SCT,BKN,0.00,0.0,WeatherDisplay:10.37,2013-03-23 15:47:00,
2013-03-23 05:52:00,68.2,64.5,29.97,NNW,338,3.1,4.6,88,0.00,SCT,BKN,0.00,0.0,WeatherDisplay:10.37,2013-03-23 15:52:00,
2013-03-23 05:57:00,68.4,64.7,29.97,NNW,338,2.2,5.4,88,0.00,SCT,BKN,0.00,0.0,WeatherDisplay:10.37,2013-03-23 15:57:00,
2013-03-23 06:02:00,68.4,64.3,30.00,NW,315,3.3,6.9,87,0.00,SCT,BKN,0.00,0.0,WeatherDisplay:10.37,2013-03-23 16:02:00,
2013-03-23 06:07:00,68.4,64.3,30.00,NE,45,1.6,5.8,87,0.00,SCT,BKN,0.00,0.0,WeatherDisplay:10.37,2013-03-23 16:07:00,
2013-03-23 06:12:00,68.4,64.3,30.00,East,90,0.0,2.3,87,0.00,SCT,BKN,0.00,0.0,WeatherDisplay:10.37,2013-03-23 16:12:00,
2013-03-23 06:17:00,68.4,64.7,30.00,SW,225,0.0,1.2,88,0.00,SCT,BKN,0.00,0.0,WeatherDisplay:10.37,2013-03-23 16:17:00,
2013-03-23 06:22:00,68.5,64.5,30.00,East,90,2.2,2.3,87,0.00,SCT,BKN,0.00,0.0,WeatherDisplay:10.37,2013-03-23 16:22:00,
2013-03-23 06:27:00,68.7,64.7,30.00,ENE,68,1.6,2.3,87,0.00,SCT,BKN,0.00,0.0,WeatherDisplay:10.37,2013-03-23 16:27:00,
2013-03-23 06:33:00,68.7,64.7,30.00,NE,45,4.0,5.8,87,0.00,SCT,BKN,0.00,0.0,WeatherDisplay:10.37,2013-03-23 16:33:00,
2013-03-23 06:38:00,68.9,64.5,30.00,NE,45,3.6,4.6,86,0.00,SCT,BKN,0.00,0.0,WeatherDisplay:10.37,2013-03-23 16:38:00,
2013-03-23 06:43:00,68.7,63.7,30.00,NE,45,3.8,6.9,84,0.00,SCT,BKN,0.00,0.0,WeatherDisplay:10.37,2013-03-23 16:43:00,
2013-03-23 06:48:00,68.5,63.2,30.00,ENE,68,3.8,5.9,83,0.00,SCT,BKN,0.00,0.0,WeatherDisplay:10.37,2013-03-23 16:48:00,
2013-03-23 06:53:00,68.4,63.3,30.00,NNE,22,4.5,5.8,84,0.00,SCT,BKN,0.00,0.0,WeatherDisplay:10.37,2013-03-23 16:53:00,
2013-03-23 06:58:00,68.2,63.2,30.00,NE,45,3.6,4.6,84,0.00,SCT,BKN,0.00,0.0,WeatherDisplay:10.37,2013-03-23 16:58:00,
2013-03-23 07:03:00,68.0,63.0,30.03,East,90,2.9,4.3,84,0.00,SCT,BKN,0.00,0.0,WeatherDisplay:10.37,2013-03-23 17:03:00,
2013-03-23 07:08:00,68.0,63.0,30.03,NNW,338,2.9,5.8,84,0.00,SCT,BKN,0.00,0.0,WeatherDisplay:10.37,2013-03-23 17:08:00,
2013-03-23 07:13:00,68.0,63.0,30.03,NE,45,3.1,4.6,84,0.00,SCT,BKN,0.00,0.0,WeatherDisplay:10.37,2013-03-23 17:13:00,
2013-03-23 07:18:00,68.2,63.2,30.03,NE,45,2.9,6.9,84,0.00,SCT,BKN,0.00,0.0,WeatherDisplay:10.37,2013-03-23 17:18:00,
2013-03-23 07:23:00,68.4,63.0,30.03,NE,45,4.5,7.4,83,0.00,SCT,BKN,0.00,0.0,WeatherDisplay:10.37,2013-03-23 17:23:00,
2013-03-23 07:28:00,68.5,63.2,30.03,NE,45,4.0,5.8,83,0.00,SCT,BKN,0.00,0.0,WeatherDisplay:10.37,2013-03-23 17:28:00,
2013-03-23 07:33:00,68.7,63.0,30.03,NE,45,3.8,6.0,82,0.00,SCT,BKN,0.00,0.0,WeatherDisplay:10.37,2013-03-23 17:33:00,
2013-03-23 07:38:00,68.9,63.2,30.03,North,0,2.4,4.6,82,0.00,SCT,BKN,0.00,0.0,WeatherDisplay:10.37,2013-03-23 17:38:00,
2013-03-23 07:43:00,69.1,63.0,30.03,NE,45,4.0,6.9,81,0.00,SCT,BKN,0.00,0.0,WeatherDisplay:10.37,2013-03-23 17:43:00,
2013-03-23 07:48:00,69.1,63.0,30.03,ENE,68,4.0,4.6,81,0.00,SCT,BKN,0.00,0.0,WeatherDisplay:10.37,2013-03-23 17:48:00,
2013-03-23 07:53:00,69.1,63.0,30.03,ENE,68,4.3,4.6,81,0.00,SCT,BKN,0.00,0.0,WeatherDisplay:10.37,2013-03-23 17:53:00,
2013-03-23 07:58:00,69.3,62.8,30.03,NE,45,4.0,5.9,80,0.00,SCT,BKN,0.00,0.0,WeatherDisplay:10.37,2013-03-23 17:58:00,
2013-03-23 08:03:00,69.4,62.3,30.03,NE,45,3.8,4.9,78,0.00,SCT,BKN,0.00,0.0,WeatherDisplay:10.37,2013-03-23 18:03:00,
2013-03-23 08:08:00,69.4,62.6,30.03,NE,45,4.0,5.8,79,0.00,SCT,BKN,0.00,0.0,WeatherDisplay:10.37,2013-03-23 18:08:00,
2013-03-23 08:13:00,69.6,62.8,30.03,NE,45,4.5,6.4,79,0.00,SCT,BKN,0.00,0.0,WeatherDisplay:10.37,2013-03-23 18:13:00,
2013-03-23 08:18:00,69.8,62.6,30.03,ENE,68,3.8,5.8,78,0.00,SCT,BKN,0.00,0.0,WeatherDisplay:10.37,2013-03-23 18:18:00,
2013-03-23 08:23:00,70.0,62.4,30.03,NE,45,4.5,5.8,77,0.00,SCT,BKN,0.00,0.0,WeatherDisplay:10.37,2013-03-23 18:23:00,
2013-03-23 08:28:00,70.2,61.5,30.03,ENE,68,4.9,6.2,74,0.00,SCT,BKN,0.00,0.0,WeatherDisplay:10.37,2013-03-23 18:28:00,
2013-03-23 08:33:00,70.2,61.1,30.03,ENE,68,4.5,5.8,73,0.00,SCT,BKN,0.00,0.0,WeatherDisplay:10.37,2013-03-23 18:33:00,
2013-03-23 08:39:00,70.5,61.8,30.03,East,90,4.7,5.8,74,0.00,SCT,BKN,0.00,125.0,WeatherDisplay:10.37,2013-03-23 18:39:00,
2013-03-23 08:44:00,70.9,61.4,30.03,ENE,68,4.7,5.8,72,0.00,SCT,BKN,0.00,125.0,WeatherDisplay:10.37,2013-03-23 18:44:00,
2013-03-23 08:49:00,71.2,62.1,30.03,East,90,4.3,7.4,73,0.00,SCT,BKN,0.00,125.0,WeatherDisplay:10.37,2013-03-23 18:49:00,
2013-03-23 08:54:00,71.4,62.7,30.03,NE,45,4.0,6.9,74,0.00,SCT,BKN,0.00,125.0,WeatherDisplay:10.37,2013-03-23 18:54:00,
2013-03-23 08:59:00,71.6,63.3,30.03,ENE,68,4.7,6.9,75,0.00,SCT,BKN,0.00,125.0,WeatherDisplay:10.37,2013-03-23 18:59:00,
2013-03-23 09:05:00,71.8,62.7,30.06,NE,45,3.1,5.9,73,0.00,SCT,BKN,0.00,125.0,WeatherDisplay:10.37,2013-03-23 19:05:00,
2013-03-23 09:10:00,71.8,61.5,30.06,ENE,68,4.5,6.0,70,0.00,SCT,BKN,0.00,125.0,WeatherDisplay:10.37,2013-03-23 19:10:00,
2013-03-23 09:15:00,71.8,61.5,30.06,East,90,4.3,5.8,70,0.00,SCT,BKN,0.00,125.0,WeatherDisplay:10.37,2013-03-23 19:15:00,
2013-03-23 09:20:00,71.8,61.1,30.06,NE,45,5.9,6.9,69,0.00,SCT,BKN,0.00,125.0,WeatherDisplay:10.37,2013-03-23 19:20:00,
2013-03-23 09:25:00,72.0,61.6,30.06,NE,45,4.3,8.5,70,0.00,SCT,BKN,0.00,125.0,WeatherDisplay:10.37,2013-03-23 19:25:00,
2013-03-23 09:30:00,72.0,61.6,30.06,NE,45,6.0,6.9,70,0.00,SCT,BKN,0.00,250.0,WeatherDisplay:10.37,2013-03-23 19:30:00,
2013-03-23 09:35:00,72.3,62.8,30.06,NE,45,4.9,5.8,72,0.00,SCT,BKN,0.00,250.0,WeatherDisplay:10.37,2013-03-23 19:35:00,
2013-03-23 09:40:00,72.7,62.7,30.06,ENE,68,4.7,5.8,71,0.00,SCT,BKN,0.00,250.0,WeatherDisplay:10.37,2013-03-23 19:40:00,
2013-03-23 09:46:00,72.9,62.5,30.06,ENE,68,4.3,5.8,70,0.00,SCT,BKN,0.00,250.0,WeatherDisplay:10.37,2013-03-23 19:46:00,
2013-03-23 09:52:00,73.0,62.3,30.06,NE,45,4.3,5.8,69,0.00,SCT,BKN,0.00,250.0,WeatherDisplay:10.37,2013-03-23 19:52:00,
2013-03-23 09:57:00,73.2,62.4,30.06,ENE,68,4.7,5.8,69,0.00,SCT,BKN,0.00,250.0,WeatherDisplay:10.37,2013-03-23 19:57:00,
2013-03-23 10:02:00,73.4,62.2,30.06,NE,45,3.8,5.9,68,0.00,SCT,BKN,0.00,250.0,WeatherDisplay:10.37,2013-03-23 20:02:00,
2013-03-23 10:07:00,73.8,62.5,30.06,NE,45,4.3,6.9,68,0.00,SCT,BKN,0.00,250.0,WeatherDisplay:10.37,2013-03-23 20:07:00,
2013-03-23 10:12:00,74.5,63.6,30.06,ENE,68,4.0,5.8,69,0.00,SCT,BKN,0.00,375.0,WeatherDisplay:10.37,2013-03-23 20:12:00,
2013-03-23 10:17:00,74.8,63.6,30.06,ENE,68,4.9,7.1,68,0.00,SCT,BKN,0.00,250.0,WeatherDisplay:10.37,2013-03-23 20:17:00,
2013-03-23 10:22:00,75.4,63.7,30.06,NE,45,4.7,5.8,67,0.00,SCT,BKN,0.00,375.0,WeatherDisplay:10.37,2013-03-23 20:22:00,
2013-03-23 10:27:00,75.7,64.4,30.06,NE,45,4.3,6.0,68,0.00,SCT,BKN,0.00,375.0,WeatherDisplay:10.37,2013-03-23 20:27:00,
2013-03-23 10:32:00,75.9,64.6,30.06,NE,45,3.8,4.9,68,0.00,SCT,BKN,0.00,375.0,WeatherDisplay:10.37,2013-03-23 20:32:00,
2013-03-23 10:37:00,75.4,64.1,30.06,NNE,22,4.9,6.9,68,0.00,SCT,BKN,0.00,250.0,WeatherDisplay:10.37,2013-03-23 20:37:00,
2013-03-23 10:42:00,74.8,63.6,30.06,NE,45,5.4,6.9,68,0.00,SCT,BKN,0.00,375.0,WeatherDisplay:10.37,2013-03-23 20:42:00,
2013-03-23 10:48:00,73.8,64.2,30.06,NE,45,4.5,7.1,72,0.00,SCT,BKN,0.00,375.0,WeatherDisplay:10.37,2013-03-23 20:48:00,
2013-03-23 10:53:00,73.0,64.3,30.06,ENE,68,6.2,8.1,74,0.00,SCT,BKN,0.00,375.0,WeatherDisplay:10.37,2013-03-23 20:53:00,
2013-03-23 10:58:00,72.9,64.5,30.06,ENE,68,4.7,5.8,75,0.00,SCT,BKN,0.00,250.0,WeatherDisplay:10.37,2013-03-23 20:58:00,
2013-03-23 11:03:00,73.0,64.2,30.06,ENE,68,4.5,4.6,74,0.00,SCT,BKN,0.00,0.0,WeatherDisplay:10.37,2013-03-23 21:03:00,
2013-03-23 11:08:00,73.6,64.4,30.06,ENE,68,3.3,4.6,73,0.00,SCT,BKN,0.00,375.0,WeatherDisplay:10.37,2013-03-23 21:08:00,
2013-03-23 11:13:00,73.6,63.6,30.06,ENE,68,5.6,8.1,71,0.00,SCT,BKN,0.00,375.0,WeatherDisplay:10.37,2013-03-23 21:13:00,
2013-03-23 11:18:00,73.6,64.4,30.06,ENE,68,5.9,6.4,73,0.00,SCT,BKN,0.00,375.0,WeatherDisplay:10.37,2013-03-23 21:18:00,
2013-03-23 11:23:00,73.4,65.0,30.06,ENE,68,5.9,6.9,75,0.00,SCT,BKN,0.00,375.0,WeatherDisplay:10.37,2013-03-23 21:23:00,
2013-03-23 11:28:00,73.2,64.4,30.06,ENE,68,5.4,8.1,74,0.00,SCT,BKN,0.00,375.0,WeatherDisplay:10.37,2013-03-23 21:28:00,
2013-03-23 11:33:00,72.5,63.7,30.06,NE,45,6.4,8.1,74,0.00,SCT,BKN,0.00,375.0,WeatherDisplay:10.37,2013-03-23 21:33:00,
2013-03-23 11:38:00,72.5,64.1,30.06,East,90,6.4,6.9,75,0.00,SCT,BKN,0.00,375.0,WeatherDisplay:10.37,2013-03-23 21:38:00,
2013-03-23 11:43:00,73.0,64.6,30.06,NE,45,5.6,8.7,75,0.00,SCT,BKN,0.00,500.0,WeatherDisplay:10.37,2013-03-23 21:43:00,
2013-03-23 11:48:00,73.6,65.2,30.06,ENE,68,5.9,7.4,75,0.00,SCT,BKN,0.00,500.0,WeatherDisplay:10.37,2013-03-23 21:48:00,
2013-03-23 11:53:00,73.6,64.8,30.06,NE,45,7.1,7.6,74,0.00,SCT,BKN,0.00,750.0,WeatherDisplay:10.37,2013-03-23 21:53:00,
2013-03-23 11:59:00,73.8,65.3,30.06,NE,45,5.6,8.1,75,0.00,SCT,BKN,0.00,375.0,WeatherDisplay:10.37,2013-03-23 21:59:00,
2013-03-23 12:04:00,73.4,65.0,30.03,NE,45,4.9,6.9,75,0.00,SCT,BKN,0.00,375.0,WeatherDisplay:10.37,2013-03-23 22:04:00,
2013-03-23 12:09:00,72.5,65.6,30.03,ENE,68,4.9,6.9,79,0.00,SCT,BKN,0.00,375.0,WeatherDisplay:10.37,2013-03-23 22:09:00,
2013-03-23 12:14:00,71.6,64.0,30.03,East,90,6.9,8.1,77,0.00,SCT,BKN,0.00,375.0,WeatherDisplay:10.37,2013-03-23 22:14:00,
2013-03-23 12:19:00,71.1,63.9,30.03,NE,45,5.4,7.6,78,0.00,SCT,BKN,0.00,375.0,WeatherDisplay:10.37,2013-03-23 22:19:00,
2013-03-23 12:24:00,70.5,64.0,30.03,NE,45,5.6,8.1,80,0.00,SCT,BKN,0.00,375.0,WeatherDisplay:10.37,2013-03-23 22:24:00,
2013-03-23 12:29:00,70.3,63.5,30.03,NNE,22,7.4,8.1,79,0.00,SCT,BKN,0.00,500.0,WeatherDisplay:10.37,2013-03-23 22:29:00,
2013-03-23 12:34:00,70.9,64.0,30.03,NE,45,4.5,6.4,79,0.00,SCT,BKN,0.00,500.0,WeatherDisplay:10.37,2013-03-23 22:34:00,
2013-03-23 12:39:00,71.4,61.9,30.03,ENE,68,6.2,8.1,72,0.00,SCT,BKN,0.00,500.0,WeatherDisplay:10.37,2013-03-23 22:39:00,
2013-03-23 12:44:00,72.7,62.7,30.03,ENE,68,6.2,8.1,71,0.00,SCT,BKN,0.00,625.0,WeatherDisplay:10.37,2013-03-23 22:44:00,
2013-03-23 12:49:00,72.9,60.8,30.03,NE,45,6.4,7.8,66,0.00,SCT,BKN,0.00,500.0,WeatherDisplay:10.37,2013-03-23 22:49:00,
2013-03-23 12:54:00,73.2,62.4,30.03,ENE,68,6.2,8.1,69,0.00,SCT,BKN,0.00,750.0,WeatherDisplay:10.37,2013-03-23 22:54:00,
2013-03-23 12:59:00,73.4,61.3,30.03,NE,45,5.9,8.1,66,0.00,SCT,BKN,0.00,500.0,WeatherDisplay:10.37,2013-03-23 22:59:00,
2013-03-23 13:04:00,73.2,61.6,30.00,ENE,68,7.4,10.4,67,0.00,SCT,BKN,0.00,375.0,WeatherDisplay:10.37,2013-03-23 23:04:00,
2013-03-23 13:09:00,73.2,60.3,30.00,NE,45,6.7,8.1,64,0.00,SCT,BKN,0.00,375.0,WeatherDisplay:10.37,2013-03-23 23:09:00,
2013-03-23 13:14:00,73.4,60.5,30.00,ENE,68,7.4,10.4,64,0.00,SCT,BKN,0.00,375.0,WeatherDisplay:10.37,2013-03-23 23:14:00,
2013-03-23 13:19:00,73.8,60.8,30.00,ENE,68,6.4,8.1,64,0.00,SCT,BKN,0.00,500.0,WeatherDisplay:10.37,2013-03-23 23:19:00,
2013-03-23 13:24:00,74.1,62.0,30.00,NE,45,6.2,6.9,66,0.00,SCT,BKN,0.00,500.0,WeatherDisplay:10.37,2013-03-23 23:24:00,
2013-03-23 13:29:00,75.0,62.5,30.00,East,90,5.4,6.9,65,0.00,SCT,BKN,0.00,750.0,WeatherDisplay:10.37,2013-03-23 23:29:00,
2013-03-23 13:34:00,74.7,63.4,29.97,ENE,68,9.0,10.4,68,0.00,SCT,BKN,0.00,500.0,WeatherDisplay:10.37,2013-03-23 23:34:00,
2013-03-23 13:39:00,74.1,64.1,29.97,NE,45,6.4,8.5,71,0.00,SCT,BKN,0.00,625.0,WeatherDisplay:10.37,2013-03-23 23:39:00,
2013-03-23 13:44:00,73.8,63.8,29.97,ENE,68,6.7,8.1,71,0.00,SCT,BKN,0.00,500.0,WeatherDisplay:10.37,2013-03-23 23:44:00,
2013-03-23 13:49:00,72.9,62.1,30.00,ENE,68,7.4,9.2,69,0.00,SCT,BKN,0.00,500.0,WeatherDisplay:10.37,2013-03-23 23:49:00,
2013-03-23 13:54:00,73.2,62.8,30.00,ENE,68,4.9,8.1,70,0.00,SCT,BKN,0.00,375.0,WeatherDisplay:10.37,2013-03-23 23:54:00,
2013-03-23 13:59:00,72.7,62.7,30.00,ENE,68,6.9,8.1,71,0.00,SCT,BKN,0.00,375.0,WeatherDisplay:10.37,2013-03-23 23:59:00,
2013-03-23 14:04:00,72.5,62.2,30.00,ENE,68,8.1,10.5,70,0.00,SCT,BKN,0.00,375.0,WeatherDisplay:10.37,2013-03-24 00:04:00,
2013-03-23 14:09:00,72.9,63.7,30.00,ENE,68,6.9,8.1,73,0.00,SCT,BKN,0.00,375.0,WeatherDisplay:10.37,2013-03-24 00:09:00,
2013-03-23 14:14:00,72.7,65.1,30.00,ENE,68,6.0,6.9,77,0.00,SCT,BKN,0.00,375.0,WeatherDisplay:10.37,2013-03-24 00:14:00,
2013-03-23 14:15:00,72.7,65.1,30.00,NE,45,6.0,6.9,77,0.00,SCT,BKN,0.00,375.0,WeatherDisplay:10.37,2013-03-24 00:15:00,
2013-03-23 14:19:00,72.7,65.1,30.00,NE,45,6.0,6.9,77,0.00,SCT,BKN,0.00,375.0,WeatherDisplay:10.37,2013-03-24 00:19:00,
2013-03-23 14:24:00,72.7,65.1,30.00,NE,45,6.0,6.9,77,0.00,SCT,BKN,0.00,375.0,WeatherDisplay:10.37,2013-03-24 00:24:00,